Location: Unspecified
(38.6830°S, 0.0000°E)
Time: 22:13:34
(UTC+00:00)

OTV 5 (USA 277) - Visible Passes

Search period start: 24 May 2019 00:00
Search period end: 03 June 2019 00:00
Orbit: 310 x 325 km, 54.5° (Epoch: 08 May)

Date Brightness Start Highest point End Pass type
(mag) Time Alt. Az. Time Alt. Az. Time Alt. Az.
26 May ? 18:21:01 10° N 18:21:33 13° NNE 18:21:33 13° NNE visible
27 May ? 18:34:52 10° NW 18:36:20 28° NNW 18:36:20 28° NNW visible
28 May ? 17:17:38 10° NE 17:18:17 11° NE 17:18:57 10° ENE visible
28 May ? 18:49:40 10° WNW 18:51:02 24° W 18:51:02 24° W visible
29 May ? 17:30:20 10° NNW 17:32:47 31° NE 17:34:44 14° ESE visible
29 May ? 19:05:14 10° WSW 19:05:38 12° WSW 19:05:38 12° WSW visible
30 May ? 17:44:44 10° NW 17:47:27 73° SW 17:49:15 19° SE visible
31 May ? 17:59:55 10° W 18:02:16 25° SW 18:03:41 17° S visible
01 Jun ? 18:15:59 10° WSW 18:17:15 12° SSW 18:18:03 11° S visible
